FDX9295 CYMX-CYQM

Flight info

Callsign FDX9295
Flight time 1h 10m
Altitude 35000
Route ANTEG DCT OBRON DCT MOBUB DCT EBMOS DCT IMORI DCT KITOP DCT FLEUR DCT PQI
Aircraft B748/H-SDE3FGHIM1M2RWXY/LB1

Departure

Time 2026-04-25 18:14
Airport Montreal Mirabel International Airport (CYMX)

Arrival

Time 2026-04-25 19:24
Airport Greater Moncton Roméo LeBlanc International Airport (CYQM)
Time Latitude Longitude Altitude Speed Heading
2026-04-25 17:23 45.67745 -74.04806 284 ft 0 kts 276°
2026-04-25 17:26 45.67745 -74.04807 284 ft 0 kts 276°
2026-04-25 17:28 45.67745 -74.04808 284 ft 0 kts 276°
2026-04-25 17:30 45.67745 -74.04809 284 ft 0 kts 276°
2026-04-25 17:33 45.67745 -74.04810 284 ft 0 kts 276°
2026-04-25 17:35 45.67745 -74.04811 284 ft 0 kts 276°
2026-04-25 17:37 45.67745 -74.04812 284 ft 0 kts 276°
2026-04-25 17:40 45.67745 -74.04813 284 ft 0 kts 276°
2026-04-25 17:41 45.67745 -74.04811 284 ft 1 kts 276°
2026-04-25 17:41 45.67744 -74.04791 284 ft 2 kts 276°
2026-04-25 17:42 45.67742 -74.04765 284 ft 3 kts 276°
2026-04-25 17:42 45.67741 -74.04736 284 ft 3 kts 262°
2026-04-25 17:42 45.67747 -74.04708 284 ft 3 kts 242°
2026-04-25 17:42 45.67759 -74.04685 284 ft 3 kts 221°
2026-04-25 17:43 45.67776 -74.04669 284 ft 3 kts 201°
2026-04-25 17:43 45.67793 -74.04663 284 ft 1 kts 186°
2026-04-25 17:43 45.67792 -74.04663 284 ft 0 kts 186°
2026-04-25 17:45 45.67791 -74.04663 284 ft 0 kts 186°
2026-04-25 17:48 45.67790 -74.04663 284 ft 0 kts 186°
2026-04-25 17:51 45.67790 -74.04664 284 ft 0 kts 186°
2026-04-25 17:52 45.67789 -74.04664 284 ft 0 kts 186°
2026-04-25 17:55 45.67788 -74.04664 284 ft 0 kts 186°
2026-04-25 17:55 45.67781 -74.04664 284 ft 2 kts 179°
2026-04-25 17:56 45.67765 -74.04655 284 ft 3 kts 154°
2026-04-25 17:56 45.67735 -74.04640 284 ft 6 kts 167°
2026-04-25 17:56 45.67683 -74.04637 284 ft 9 kts 182°
2026-04-25 17:56 45.67612 -74.04644 284 ft 12 kts 185°
2026-04-25 17:57 45.67527 -74.04655 284 ft 14 kts 186°
2026-04-25 17:57 45.67425 -74.04669 284 ft 15 kts 185°
2026-04-25 17:57 45.67320 -74.04684 284 ft 15 kts 186°
2026-04-25 17:57 45.67253 -74.04692 284 ft 14 kts 185°
2026-04-25 17:58 45.67166 -74.04655 284 ft 8 kts 119°
2026-04-25 17:58 45.67149 -74.04572 284 ft 9 kts 101°
2026-04-25 17:58 45.67139 -74.04472 284 ft 11 kts 98°
2026-04-25 17:58 45.67129 -74.04350 284 ft 13 kts 96°
2026-04-25 17:59 45.67130 -74.04207 284 ft 16 kts 74°
2026-04-25 17:59 45.67171 -74.04037 284 ft 20 kts 70°
2026-04-25 17:59 45.67223 -74.03841 284 ft 21 kts 69°
2026-04-25 17:59 45.67272 -74.03656 284 ft 19 kts 70°
2026-04-25 18:00 45.67317 -74.03483 284 ft 18 kts 69°
2026-04-25 18:00 45.67361 -74.03321 284 ft 17 kts 68°
2026-04-25 18:00 45.67406 -74.03156 284 ft 19 kts 69°
2026-04-25 18:00 45.67454 -74.02980 284 ft 18 kts 68°
2026-04-25 18:01 45.67499 -74.02813 284 ft 18 kts 69°
2026-04-25 18:01 45.67500 -74.02675 284 ft 13 kts 136°
2026-04-25 18:01 45.67421 -74.02604 284 ft 15 kts 152°
2026-04-25 18:01 45.67320 -74.02528 284 ft 18 kts 152°
2026-04-25 18:02 45.67209 -74.02445 284 ft 18 kts 153°
2026-04-25 18:02 45.67122 -74.02343 284 ft 14 kts 110°
2026-04-25 18:02 45.67108 -74.02263 284 ft 0 kts 104°
2026-04-25 18:04 45.67108 -74.02262 284 ft 0 kts 104°
2026-04-25 18:06 45.67108 -74.02261 284 ft 0 kts 104°
2026-04-25 18:09 45.67108 -74.02260 284 ft 0 kts 104°
2026-04-25 18:11 45.67108 -74.02259 284 ft 0 kts 104°
2026-04-25 18:11 45.67105 -74.02247 284 ft 3 kts 106°
2026-04-25 18:12 45.67093 -74.02196 284 ft 7 kts 107°
2026-04-25 18:12 45.67099 -74.02111 284 ft 9 kts 63°
2026-04-25 18:12 45.67114 -74.02078 284 ft 0 kts 52°
2026-04-25 18:13 45.67329 -74.01765 284 ft 87 kts 43°
2026-04-25 18:13 45.67947 -74.00894 284 ft 159 kts 43°
2026-04-25 18:13 45.68865 -73.99597 310 ft 215 kts 42°
2026-04-25 18:14 45.70872 -73.95601 1153 ft 282 kts 53°
2026-04-25 18:14 45.72212 -73.93254 1553 ft 314 kts 47°
2026-04-25 18:14 45.73664 -73.91030 1871 ft 303 kts 44°
2026-04-25 18:14 45.75062 -73.88855 2203 ft 286 kts 44°
2026-04-25 18:15 45.76342 -73.86773 2571 ft 271 kts 45°
2026-04-25 18:15 45.77536 -73.84784 2840 ft 257 kts 45°
2026-04-25 18:15 45.78623 -73.82926 2934 ft 246 kts 45°
2026-04-25 18:15 45.79715 -73.81036 2966 ft 247 kts 45°
2026-04-25 18:16 45.80814 -73.79139 2994 ft 248 kts 45°
2026-04-25 18:16 45.81914 -73.77241 3002 ft 247 kts 45°
2026-04-25 18:16 45.84120 -73.73440 3008 ft 248 kts 45°
2026-04-25 18:17 45.85211 -73.71562 3001 ft 248 kts 45°
2026-04-25 18:17 45.86311 -73.69672 2989 ft 247 kts 45°
2026-04-25 18:17 45.87415 -73.67772 2986 ft 248 kts 45°
2026-04-25 18:17 45.88521 -73.65870 2975 ft 247 kts 45°
2026-04-25 18:18 45.89622 -73.63983 2992 ft 247 kts 45°
2026-04-25 18:18 45.90732 -73.62092 2987 ft 246 kts 45°
2026-04-25 18:18 45.91832 -73.60218 2989 ft 247 kts 45°
2026-04-25 18:18 45.92912 -73.58287 2986 ft 249 kts 52°
2026-04-25 18:19 45.93541 -73.55961 2996 ft 254 kts 77°
2026-04-25 18:19 45.93763 -73.53464 3285 ft 252 kts 84°
2026-04-25 18:19 45.93909 -73.50897 3727 ft 264 kts 84°
2026-04-25 18:19 45.94056 -73.48237 4171 ft 269 kts 83°
2026-04-25 18:20 45.94217 -73.45547 4594 ft 271 kts 82°
2026-04-25 18:20 45.94391 -73.42836 5026 ft 273 kts 82°
2026-04-25 18:20 45.94573 -73.40106 5455 ft 276 kts 81°
2026-04-25 18:20 45.94669 -73.38710 5661 ft 277 kts 81°
2026-04-25 18:21 45.94790 -73.36949 5942 ft 278 kts 80°
2026-04-25 18:21 45.94990 -73.34135 6374 ft 281 kts 79°
2026-04-25 18:21 45.95189 -73.31331 6812 ft 282 kts 80°
2026-04-25 18:21 45.95395 -73.28556 7223 ft 284 kts 78°
2026-04-25 18:22 45.95814 -73.26334 7533 ft 278 kts 60°
2026-04-25 18:22 45.96116 -73.25540 7666 ft 274 kts 51°
2026-04-25 18:22 45.98002 -73.22366 8342 ft 272 kts 39°
2026-04-25 18:22 45.99318 -73.20420 8731 ft 272 kts 39°
2026-04-25 18:23 46.00638 -73.18465 9121 ft 273 kts 39°
2026-04-25 18:23 46.01955 -73.16498 9514 ft 274 kts 40°
2026-04-25 18:23 46.03283 -73.14499 9906 ft 277 kts 40°
2026-04-25 18:23 46.04616 -73.12480 10298 ft 283 kts 40°
2026-04-25 18:24 46.06020 -73.10354 10713 ft 302 kts 41°
2026-04-25 18:24 46.07508 -73.08096 11166 ft 320 kts 41°
2026-04-25 18:24 46.09083 -73.05695 11628 ft 338 kts 41°
2026-04-25 18:24 46.10735 -73.03166 12088 ft 356 kts 42°
2026-04-25 18:25 46.12467 -73.00503 12548 ft 371 kts 42°
2026-04-25 18:25 46.14250 -72.97746 13009 ft 379 kts 42°
2026-04-25 18:25 46.16066 -72.94925 13467 ft 384 kts 42°
2026-04-25 18:25 46.17765 -72.91935 13935 ft 391 kts 50°
2026-04-25 18:26 46.19299 -72.88624 14413 ft 398 kts 53°
2026-04-25 18:26 46.20751 -72.85201 14885 ft 404 kts 55°
2026-04-25 18:26 46.22201 -72.81669 15364 ft 409 kts 56°
2026-04-25 18:26 46.23657 -72.78097 15845 ft 415 kts 56°
2026-04-25 18:27 46.25132 -72.74486 16326 ft 419 kts 55°
2026-04-25 18:27 46.26607 -72.70896 16801 ft 423 kts 55°
2026-04-25 18:27 46.27704 -72.68224 17152 ft 427 kts 55°
2026-04-25 18:27 46.29233 -72.64500 17697 ft 432 kts 55°
2026-04-25 18:28 46.30273 -72.61971 18078 ft 436 kts 55°
2026-04-25 18:28 46.32340 -72.56942 18837 ft 443 kts 55°
2026-04-25 18:28 46.33928 -72.53085 19415 ft 449 kts 56°
2026-04-25 18:29 46.37162 -72.45212 20575 ft 459 kts 56°
2026-04-25 18:29 46.38806 -72.41204 21157 ft 465 kts 56°
2026-04-25 18:30 46.43819 -72.28942 22911 ft 477 kts 56°
2026-04-25 18:30 46.45516 -72.24779 23499 ft 481 kts 56°
2026-04-25 18:30 46.47221 -72.20587 24087 ft 484 kts 56°
2026-04-25 18:30 46.48666 -72.17031 24584 ft 486 kts 57°
2026-04-25 18:31 46.50377 -72.12814 25172 ft 489 kts 57°
2026-04-25 18:31 46.52113 -72.08528 25786 ft 490 kts 57°
2026-04-25 18:31 46.53844 -72.04252 26402 ft 492 kts 57°
2026-04-25 18:31 46.55574 -71.99972 26991 ft 493 kts 57°
2026-04-25 18:32 46.57312 -71.95665 27586 ft 495 kts 58°
2026-04-25 18:32 46.59060 -71.91322 28185 ft 496 kts 58°
2026-04-25 18:32 46.60214 -71.88447 28562 ft 498 kts 58°
2026-04-25 18:32 46.61973 -71.84065 29110 ft 501 kts 58°
2026-04-25 18:33 46.64307 -71.78241 29832 ft 505 kts 58°
2026-04-25 18:33 46.66080 -71.73809 30383 ft 507 kts 58°
2026-04-25 18:33 46.67860 -71.69353 30941 ft 509 kts 58°
2026-04-25 18:33 46.69033 -71.66410 31320 ft 510 kts 58°
2026-04-25 18:34 46.70967 -71.61981 31900 ft 510 kts 52°
2026-04-25 18:34 46.73134 -71.57929 32478 ft 508 kts 47°
2026-04-25 18:34 46.75468 -71.54036 33050 ft 508 kts 44°
2026-04-25 18:34 46.77813 -71.50170 33614 ft 510 kts 49°
2026-04-25 18:35 46.79422 -71.46572 34101 ft 512 kts 62°
2026-04-25 18:35 46.80661 -71.42436 34613 ft 514 kts 71°
2026-04-25 18:35 46.81725 -71.37635 34854 ft 524 kts 76°
2026-04-25 18:35 46.82414 -71.34013 34831 ft 529 kts 77°
2026-04-25 18:36 46.84355 -71.23188 34859 ft 542 kts 78°
2026-04-25 18:36 46.86198 -71.13197 34877 ft 555 kts 77°
2026-04-25 18:37 46.88186 -71.02819 34899 ft 568 kts 77°
2026-04-25 18:37 46.90361 -70.91663 34854 ft 581 kts 76°
2026-04-25 18:38 46.92533 -70.80234 34808 ft 585 kts 77°
2026-04-25 18:38 46.94643 -70.68722 34786 ft 585 kts 77°
2026-04-25 18:39 46.96795 -70.57235 34775 ft 585 kts 77°
2026-04-25 18:39 46.98608 -70.45725 34765 ft 582 kts 88°
2026-04-25 18:40 46.98419 -70.33962 34763 ft 578 kts 102°
2026-04-25 18:40 46.97233 -70.22299 34751 ft 579 kts 105°
2026-04-25 18:41 46.96023 -70.10631 34743 ft 580 kts 104°
2026-04-25 18:41 46.94975 -69.98895 34732 ft 580 kts 103°
2026-04-25 18:42 46.94145 -69.89117 34725 ft 584 kts 103°
2026-04-25 18:42 46.92961 -69.75355 34714 ft 584 kts 103°
2026-04-25 18:43 46.91942 -69.63626 34705 ft 584 kts 103°
2026-04-25 18:43 46.90907 -69.51842 34696 ft 585 kts 104°
2026-04-25 18:44 46.89858 -69.40029 34665 ft 585 kts 104°
2026-04-25 18:44 46.88796 -69.28211 34696 ft 586 kts 104°
2026-04-25 18:45 46.87714 -69.16317 34690 ft 586 kts 104°
2026-04-25 18:45 46.86634 -69.04574 34660 ft 587 kts 104°
2026-04-25 18:46 46.85539 -68.92810 34660 ft 588 kts 104°
2026-04-25 18:46 46.84425 -68.80970 34660 ft 588 kts 104°
2026-04-25 18:47 46.83298 -68.69123 34660 ft 588 kts 105°
2026-04-25 18:47 46.82159 -68.57289 34667 ft 589 kts 105°
2026-04-25 18:48 46.81018 -68.45549 34673 ft 586 kts 105°
2026-04-25 18:48 46.79859 -68.33754 34676 ft 587 kts 105°
2026-04-25 18:49 46.78684 -68.21923 34671 ft 588 kts 105°
2026-04-25 18:49 46.77506 -68.10109 34671 ft 588 kts 105°
2026-04-25 18:50 46.76089 -67.98389 34673 ft 587 kts 109°
2026-04-25 18:50 46.74361 -67.86754 34675 ft 585 kts 110°
2026-04-25 18:51 46.72931 -67.77134 34677 ft 584 kts 110°
2026-04-25 18:51 46.70966 -67.63581 34677 ft 585 kts 110°
2026-04-25 18:52 46.69323 -67.52165 34673 ft 571 kts 110°
2026-04-25 18:52 46.67690 -67.40904 34582 ft 564 kts 110°
2026-04-25 18:53 46.66878 -67.35342 34308 ft 558 kts 110°
2026-04-25 18:53 46.66079 -67.29881 33970 ft 554 kts 111°
2026-04-25 18:53 46.65270 -67.24374 33617 ft 550 kts 111°
2026-04-25 18:53 46.64468 -67.18935 33265 ft 547 kts 111°
2026-04-25 18:54 46.62877 -67.08195 32496 ft 541 kts 112°
2026-04-25 18:54 46.62079 -67.02848 32030 ft 541 kts 112°
2026-04-25 18:54 46.61274 -66.97486 31530 ft 541 kts 112°
2026-04-25 18:55 46.60466 -66.92114 30999 ft 542 kts 112°
2026-04-25 18:55 46.59658 -66.86769 30468 ft 542 kts 112°
2026-04-25 18:55 46.58849 -66.81409 29920 ft 544 kts 112°
2026-04-25 18:55 46.58036 -66.76023 29317 ft 546 kts 113°
2026-04-25 18:56 46.57220 -66.70627 28759 ft 547 kts 112°
2026-04-25 18:56 46.56395 -66.65238 28162 ft 548 kts 113°
2026-04-25 18:56 46.55577 -66.59832 27625 ft 548 kts 112°
2026-04-25 18:56 46.54750 -66.54419 27055 ft 548 kts 113°
2026-04-25 18:57 46.53927 -66.49072 26508 ft 547 kts 112°
2026-04-25 18:57 46.53096 -66.43695 25962 ft 546 kts 113°
2026-04-25 18:57 46.52260 -66.38316 25415 ft 545 kts 113°
2026-04-25 18:57 46.51697 -66.34695 25048 ft 544 kts 113°
2026-04-25 18:58 46.50593 -66.27622 24328 ft 541 kts 113°
2026-04-25 18:58 46.48931 -66.17013 23248 ft 537 kts 113°
2026-04-25 18:58 46.48106 -66.11766 22713 ft 534 kts 113°
2026-04-25 18:59 46.46454 -66.01309 21644 ft 528 kts 113°
2026-04-25 18:59 46.44812 -65.90988 20609 ft 520 kts 113°
2026-04-25 19:00 46.43208 -65.80870 19692 ft 510 kts 114°
2026-04-25 19:00 46.42411 -65.75914 19247 ft 504 kts 114°
2026-04-25 19:01 46.40831 -65.66141 18374 ft 491 kts 114°
2026-04-25 19:01 46.40052 -65.61351 17936 ft 484 kts 114°
2026-04-25 19:01 46.39300 -65.56699 17523 ft 477 kts 114°
2026-04-25 19:01 46.38534 -65.52001 17074 ft 470 kts 114°
2026-04-25 19:02 46.37041 -65.42989 16197 ft 456 kts 114°
2026-04-25 19:02 46.36299 -65.38485 15743 ft 449 kts 113°
2026-04-25 19:02 46.35583 -65.34181 15315 ft 443 kts 113°
2026-04-25 19:03 46.34630 -65.28443 14722 ft 435 kts 112°
2026-04-25 19:03 46.33469 -65.21435 13987 ft 427 kts 111°
2026-04-25 19:03 46.32975 -65.17185 13535 ft 429 kts 103°
2026-04-25 19:04 46.33152 -65.08543 12636 ft 428 kts 89°
2026-04-25 19:04 46.33470 -65.04272 12163 ft 424 kts 88°
2026-04-25 19:05 46.34066 -64.95860 11238 ft 416 kts 88°
2026-04-25 19:05 46.34618 -64.87636 10304 ft 406 kts 88°
2026-04-25 19:05 46.34876 -64.83592 9994 ft 398 kts 88°
2026-04-25 19:06 46.35129 -64.79690 9894 ft 383 kts 89°
2026-04-25 19:06 46.35634 -64.72340 9876 ft 352 kts 89°
2026-04-25 19:06 46.35887 -64.68925 9865 ft 337 kts 88°
2026-04-25 19:07 46.36391 -64.62458 9868 ft 309 kts 88°
2026-04-25 19:07 46.36644 -64.59435 9862 ft 296 kts 88°
2026-04-25 19:08 46.37145 -64.53595 9469 ft 292 kts 88°
2026-04-25 19:08 46.37398 -64.50652 9130 ft 295 kts 88°
2026-04-25 19:09 46.38156 -64.41708 8078 ft 302 kts 88°
2026-04-25 19:09 46.38246 -64.40684 7958 ft 303 kts 88°
2026-04-25 19:09 46.38966 -64.32550 7022 ft 308 kts 88°
2026-04-25 19:10 46.39242 -64.29467 6679 ft 309 kts 88°
2026-04-25 19:10 46.39524 -64.26385 6399 ft 307 kts 88°
2026-04-25 19:10 46.39811 -64.23362 6135 ft 305 kts 88°
2026-04-25 19:10 46.39982 -64.20328 5853 ft 297 kts 100°
2026-04-25 19:11 46.39485 -64.17531 5603 ft 271 kts 128°
2026-04-25 19:11 46.38381 -64.15579 5385 ft 241 kts 154°
2026-04-25 19:11 46.36946 -64.14701 5182 ft 211 kts 182°
2026-04-25 19:11 46.35611 -64.15018 5009 ft 186 kts 210°
2026-04-25 19:12 46.34709 -64.16236 4866 ft 174 kts 230°
2026-04-25 19:12 46.33996 -64.17612 4687 ft 168 kts 231°
2026-04-25 19:12 46.33293 -64.18933 4500 ft 163 kts 230°
2026-04-25 19:12 46.32595 -64.20189 4317 ft 157 kts 229°
2026-04-25 19:13 46.31906 -64.21393 4142 ft 153 kts 228°
2026-04-25 19:13 46.31223 -64.22568 3978 ft 152 kts 228°
2026-04-25 19:13 46.30541 -64.23729 3923 ft 152 kts 227°
2026-04-25 19:13 46.29855 -64.24889 3899 ft 154 kts 228°
2026-04-25 19:14 46.29140 -64.26064 3893 ft 155 kts 227°
2026-04-25 19:14 46.28907 -64.26444 3894 ft 155 kts 227°
2026-04-25 19:14 46.27751 -64.28342 3897 ft 153 kts 227°
2026-04-25 19:14 46.27050 -64.29499 3954 ft 154 kts 228°
2026-04-25 19:15 46.26346 -64.30660 3981 ft 153 kts 227°
2026-04-25 19:15 46.25650 -64.31822 3994 ft 153 kts 228°
2026-04-25 19:15 46.24953 -64.32983 4006 ft 153 kts 229°
2026-04-25 19:15 46.24257 -64.34143 4000 ft 153 kts 228°
2026-04-25 19:16 46.23560 -64.35307 3997 ft 152 kts 228°
2026-04-25 19:16 46.22876 -64.36452 3992 ft 150 kts 228°
2026-04-25 19:16 46.22194 -64.37587 3998 ft 150 kts 228°
2026-04-25 19:16 46.21737 -64.38343 3999 ft 150 kts 228°
2026-04-25 19:17 46.20821 -64.39878 3770 ft 152 kts 227°
2026-04-25 19:17 46.20293 -64.40552 3613 ft 152 kts 213°
2026-04-25 19:17 46.18942 -64.41029 3396 ft 150 kts 193°
2026-04-25 19:17 46.17941 -64.41147 3202 ft 139 kts 190°
2026-04-25 19:18 46.17011 -64.41196 3040 ft 129 kts 189°
2026-04-25 19:18 46.16410 -64.41203 3022 ft 131 kts 189°
2026-04-25 19:18 46.15480 -64.41176 3045 ft 135 kts 187°
2026-04-25 19:18 46.14541 -64.41139 3028 ft 135 kts 187°
2026-04-25 19:19 46.13606 -64.41095 3032 ft 135 kts 187°
2026-04-25 19:19 46.12727 -64.41397 3010 ft 131 kts 213°
2026-04-25 19:19 46.12219 -64.42491 3038 ft 135 kts 240°
2026-04-25 19:19 46.11977 -64.43338 3026 ft 133 kts 242°
2026-04-25 19:20 46.11644 -64.44975 3006 ft 127 kts 249°
2026-04-25 19:20 46.11459 -64.46236 2909 ft 129 kts 251°
2026-04-25 19:20 46.11327 -64.47509 2781 ft 129 kts 254°
2026-04-25 19:20 46.11221 -64.48803 2639 ft 131 kts 256°
2026-04-25 19:21 46.11159 -64.50125 2460 ft 132 kts 258°
2026-04-25 19:21 46.11079 -64.52770 2091 ft 133 kts 261°
2026-04-25 19:21 46.11043 -64.54101 1910 ft 134 kts 262°
2026-04-25 19:22 46.11011 -64.55449 1738 ft 135 kts 262°
2026-04-25 19:22 46.10981 -64.56803 1553 ft 136 kts 263°
2026-04-25 19:22 46.10916 -64.59621 1205 ft 151 kts 261°
2026-04-25 19:23 46.10881 -64.61108 1003 ft 145 kts 266°
2026-04-25 19:23 46.10833 -64.63923 581 ft 138 kts 266°
2026-04-25 19:23 46.10791 -64.65315 417 ft 139 kts 266°
2026-04-25 19:24 46.10759 -64.66700 260 ft 137 kts 267°
2026-04-25 19:24 46.10736 -64.67819 246 ft 74 kts 268°
2026-04-25 19:24 46.10713 -64.68468 246 ft 1 kts 221°
2026-04-25 19:25 46.10708 -64.68472 246 ft 1 kts 216°
2026-04-25 19:25 46.10701 -64.68478 246 ft 0 kts 210°
2026-04-25 19:25 46.10700 -64.68479 246 ft 0 kts 210°
2026-04-25 19:26 46.10695 -64.68482 246 ft 2 kts 207°
2026-04-25 19:26 46.10686 -64.68490 246 ft 0 kts 211°
2026-04-25 19:27 46.10685 -64.68490 246 ft 0 kts 212°